Date String (YYYY-MM-DD hh:mm:ss) UTC,Instrument flags,absolute air pressure of the measurement (hPa),sample flow rate (lpm),inlet stack bypass flow (lpm),air temperature of the measurement (°C),ambient temperature measured by the external sensor (°C),aerosol sample conditioner tube jacket temperature (°C),OPC LED temperature (°C),internal box temperature (°C),relative humidity of the measurement (%),span deviation,mass concentration of particles derived from Lorenz-Mie calculation of OPC scattering (μg/m³),mass concentration of particles derived from Lorenz-Mie calculation of OPC scattering (μg/m³),mass concentration of particles derived from Lorenz-Mie calculation of OPC scattering (μg/m³)
DateTimeUTC,F1_M11,P_M11,Q1_M11,Q2_M11,T1_M11,T2_M11,T3_M11,T4_M11,T5_M11,U1_M11,ZSPAN_M11,X2_M11,X0_M11,X1_M11
2023-09-07 22:00:00,SystemResetWarning,0831.3,5.02,000.00,027.6,024.6,000.0,035.9,029.0,10.6,0000.0,0001.44,0003.27,0000.83
2023-09-07 22:01:00,SystemResetWarning,0831.3,4.99,000.00,027.6,025.0,000.0,035.8,029.1,10.8,0000.0,0001.42,0003.45,0000.83
2023-09-07 22:02:00,SystemResetWarning,0831.3,5.00,000.00,027.6,025.4,000.0,035.8,029.2,11.1,0000.0,0001.37,0003.59,0000.82
2023-09-07 22:03:00,SystemResetWarning,0831.3,5.00,000.00,027.7,025.8,000.0,035.9,029.3,10.5,0000.0,0001.38,0003.31,0000.82
2023-09-07 22:04:00,SystemResetWarning,0831.3,5.00,000.00,027.7,026.3,000.0,035.9,029.5,10.6,0000.0,0001.34,0002.95,0000.81
2023-09-07 22:05:00,SystemResetWarning,0831.3,4.99,000.00,027.8,026.4,000.0,035.9,029.5,10.9,0000.0,0001.36,0003.00,0000.81
2023-09-07 22:06:00,SystemResetWarning,0831.3,4.99,000.00,027.7,025.1,000.0,035.9,029.0,11.0,0000.0,0001.37,0003.69,0000.82
2023-09-07 22:07:00,SystemResetWarning,0831.3,5.01,000.00,027.6,024.3,000.0,035.8,028.8,11.3,0000.0,0001.36,0004.21,0000.82
2023-09-07 22:08:00,SystemResetWarning,0831.3,5.01,000.00,027.6,024.6,000.0,035.8,029.0,11.3,0000.0,0001.33,0004.11,0000.83
2023-09-07 22:09:00,SystemResetWarning,0831.3,5.00,000.00,027.6,025.0,000.0,035.8,029.0,10.7,0000.0,0001.33,0004.15,0000.83
2023-09-07 22:10:00,SystemResetWarning,0831.3,5.00,000.00,027.6,025.4,000.0,035.8,029.2,10.5,0000.0,0001.31,0004.14,0000.83
2023-09-07 22:11:00,SystemResetWarning,0831.3,5.00,000.00,027.7,025.9,000.0,035.8,029.3,10.5,0000.0,0001.35,0004.33,0000.82
2023-09-07 22:12:00,SystemResetWarning,0831.3,4.99,000.00,027.7,026.2,000.0,035.9,029.4,10.8,0000.0,0001.34,0004.12,0000.82
2023-09-07 22:13:00,SystemResetWarning,0831.3,4.98,000.00,027.7,025.7,000.0,035.9,029.2,11.1,0000.0,0001.35,0003.79,0000.82
2023-09-07 22:14:00,SystemResetWarning,0831.3,5.01,000.00,027.6,024.5,000.0,035.8,028.8,10.6,0000.0,0001.34,0003.69,0000.81
2023-09-07 22:15:00,SystemResetWarning,0831.3,5.01,000.00,027.5,024.4,000.0,035.8,028.9,10.5,0000.0,0001.33,0004.08,0000.82
2023-09-07 22:16:00,SystemResetWarning,0831.3,5.01,000.00,027.5,024.8,000.0,035.8,029.0,10.4,0000.0,0001.33,0004.55,0000.82
2023-09-07 22:17:00,SystemResetWarning,0831.3,5.00,000.00,027.5,025.2,000.0,035.8,029.0,10.2,0000.0,0001.31,0003.86,0000.82
2023-09-07 22:18:00,SystemResetWarning,0831.2,5.00,000.00,027.6,025.7,000.0,035.8,029.2,10.3,0000.0,0001.31,0003.83,0000.82
2023-09-07 22:19:00,SystemResetWarning,0831.2,5.00,000.00,027.6,026.1,000.0,035.8,029.4,10.6,0000.0,0001.35,0004.15,0000.81
2023-09-07 22:20:00,SystemResetWarning,0831.2,5.00,000.00,027.7,026.5,000.0,035.8,029.5,10.2,0000.0,0001.31,0004.11,0000.80
2023-09-07 22:21:00,SystemResetWarning,0831.3,5.00,000.00,027.8,026.5,000.0,035.9,029.5,10.3,0000.0,0001.30,0004.86,0000.80
2023-09-07 22:22:00,SystemResetWarning,0831.3,4.98,000.00,027.7,025.2,000.0,035.8,029.1,10.2,0000.0,0001.25,0005.60,0000.81
2023-09-07 22:23:00,SystemResetWarning,0831.3,5.02,000.00,027.6,024.4,000.0,035.8,028.9,10.5,0000.0,0001.26,0007.02,0000.82
2023-09-07 22:24:00,SystemResetWarning,0831.2,5.00,000.00,027.6,024.7,000.0,035.8,029.0,10.4,0000.0,0001.27,0007.07,0000.82
2023-09-07 22:25:00,SystemResetWarning,0831.2,4.99,000.00,027.6,025.1,000.0,035.8,029.0,10.3,0000.0,0001.26,0007.04,0000.81
2023-09-07 22:26:00,SystemResetWarning,0831.3,5.00,000.00,027.6,025.5,000.0,035.8,029.2,10.1,0000.0,0001.25,0006.81,0000.81
2023-09-07 22:27:00,SystemResetWarning,0831.3,5.01,000.00,027.6,026.0,000.0,035.8,029.3,10.4,0000.0,0001.27,0006.26,0000.80
2023-09-07 22:28:00,SystemResetWarning,0831.3,5.00,000.00,027.7,026.4,000.0,035.8,029.5,10.0,0000.0,0001.23,0006.76,0000.79
2023-09-07 22:29:00,SystemResetWarning,0831.3,4.99,000.00,027.8,026.4,000.0,035.9,029.5,9.9,0000.0,0001.23,0006.63,0000.80
2023-09-07 22:30:00,SystemResetWarning,0831.3,4.99,000.00,027.7,025.2,000.0,035.8,029.1,10.1,0000.0,0001.21,0006.32,0000.81
2023-09-07 22:31:00,SystemResetWarning,0831.3,5.01,000.00,027.6,024.4,000.0,035.8,028.9,10.1,0000.0,0001.19,0006.36,0000.81
2023-09-07 22:32:00,SystemResetWarning,0831.3,5.01,000.00,027.6,024.7,000.0,035.8,029.0,10.1,0000.0,0001.18,0005.67,0000.80
2023-09-07 22:33:00,SystemResetWarning,0831.3,4.99,000.00,027.6,025.1,000.0,035.8,029.1,10.4,0000.0,0001.21,0004.98,0000.79
2023-09-07 22:34:00,SystemResetWarning,0831.3,5.00,000.00,027.6,025.5,000.0,035.8,029.2,10.6,0000.0,0001.19,0003.68,0000.78
2023-09-07 22:35:00,SystemResetWarning,0831.3,5.01,000.00,027.7,026.0,000.0,035.8,029.3,10.2,0000.0,0001.16,0003.40,0000.78
2023-09-07 22:36:00,SystemResetWarning,0831.3,5.00,000.00,027.7,026.3,000.0,035.9,029.5,10.3,0000.0,0001.18,0003.52,0000.78
2023-09-07 22:37:00,SystemResetWarning,0831.3,4.99,000.00,027.8,026.4,000.0,035.9,029.5,10.3,0000.0,0001.22,0003.93,0000.79
2023-09-07 22:38:00,SystemResetWarning,0831.3,4.99,000.00,027.7,025.2,000.0,035.9,029.1,10.4,0000.0,0001.18,0003.74,0000.80
2023-09-07 22:39:00,SystemResetWarning,0831.3,5.03,000.00,027.6,024.4,000.0,035.8,028.8,10.3,0000.0,0001.20,0003.42,0000.79
2023-09-07 22:40:00,SystemResetWarning,0831.3,5.00,000.00,027.6,024.7,000.0,035.8,029.0,10.4,0000.0,0001.20,0002.88,0000.78
2023-09-07 22:41:00,SystemResetWarning,0831.3,5.00,000.00,027.6,025.0,000.0,035.8,029.0,10.5,0000.0,0001.19,0002.86,0000.77
2023-09-07 22:42:00,SystemResetWarning,0831.4,5.00,000.00,027.6,025.5,000.0,035.8,029.2,10.3,0000.0,0001.17,0002.70,0000.76
2023-09-07 22:43:00,SystemResetWarning,0831.3,4.99,000.00,027.6,025.9,000.0,035.8,029.3,10.3,0000.0,0001.20,0002.72,0000.77
2023-09-07 22:44:00,SystemResetWarning,0831.3,4.99,000.00,027.7,026.3,000.0,035.8,029.5,10.4,0000.0,0001.26,0002.73,0000.78
2023-09-07 22:45:00,SystemResetWarning,0831.3,5.00,000.00,027.8,026.4,000.0,035.9,029.5,10.5,0000.0,0001.27,0003.22,0000.80
2023-09-07 22:46:00,SystemResetWarning,0831.3,4.99,000.00,027.7,025.1,000.0,035.8,029.1,10.3,0000.0,0001.30,0003.37,0000.79
2023-09-07 22:47:00,SystemResetWarning,0831.3,5.01,000.00,027.6,024.3,000.0,035.8,028.9,10.1,0000.0,0001.26,0003.62,0000.78
2023-09-07 22:48:00,SystemResetWarning,0831.3,5.01,000.00,027.6,024.6,000.0,035.8,029.0,10.4,0000.0,0001.27,0003.36,0000.79
2023-09-07 22:49:00,SystemResetWarning,0831.3,4.99,000.00,027.5,025.0,000.0,035.8,029.0,10.5,0000.0,0001.28,0003.37,0000.79
2023-09-07 22:50:00,SystemResetWarning,0831.3,4.99,000.00,027.6,025.4,000.0,035.8,029.2,10.5,0000.0,0001.28,0003.39,0000.80
2023-09-07 22:51:00,SystemResetWarning,0831.3,5.00,000.00,027.6,025.9,000.0,035.8,029.3,10.7,0000.0,0001.30,0003.45,0000.80
2023-09-07 22:52:00,SystemResetWarning,0831.3,5.01,000.00,027.7,026.3,000.0,035.8,029.4,10.7,0000.0,0001.31,0003.52,0000.80
2023-09-07 22:53:00,SystemResetWarning,0831.3,5.00,000.00,027.8,026.4,000.0,035.8,029.5,10.2,0000.0,0001.32,0003.62,0000.80
2023-09-07 22:54:00,SystemResetWarning,0831.3,4.98,000.00,027.7,025.2,000.0,035.8,029.0,9.9,0000.0,0001.30,0003.74,0000.79
2023-09-07 22:55:00,SystemResetWarning,0831.2,5.01,000.00,027.6,024.4,000.0,035.8,028.9,10.2,0000.0,0001.24,0003.92,0000.78
2023-09-07 22:56:00,SystemResetWarning,0831.3,5.00,000.00,027.6,024.6,000.0,035.8,029.0,10.6,0000.0,0001.23,0003.39,0000.77
2023-09-07 22:57:00,SystemResetWarning,0831.3,4.99,000.00,027.5,025.0,000.0,035.7,029.0,10.9,0000.0,0001.17,0003.09,0000.77
2023-09-07 22:58:00,SystemResetWarning,0831.3,5.00,000.00,027.6,025.4,000.0,035.8,029.1,10.5,0000.0,0001.17,0002.74,0000.77
2023-09-07 22:59:00,SystemResetWarning,0831.3,5.00,000.00,027.6,025.9,000.0,035.8,029.3,10.2,0000.0,0001.12,0002.59,0000.76
